Weather History for Terrell, TX

Change the Weather History Date:

Friday, October 19, 2012

  Actual Average (KDFW) Record (KDFW)
Temperature  
Mean Temperature 60 °F 67 °F  
Max Temperature 77 °F 77 °F 94 °F (1921)
Min Temperature 46 °F 56 °F 38 °F (1989)
Degree Days  
Heating Degree Days 4 2  
Month to date heating degree days 25  
Since 1 July heating degree days 31  
Cooling Degree Days 0 4  
Month to date cooling degree days 109  
Year to date cooling degree days 2686  
Growing Degree Days 10 (Base 50)    
Moisture  
Dew Point 35 °F    
Average Humidity 47    
Maximum Humidity 77    
Minimum Humidity 15    
Precipitation  
Precipitation 0.00 in 0.16 in 2.64 in (1971)
Month to date precipitation 2.42  
Year to date precipitation 29.08  
Snow  
Snow 0.00 in 0.00 in 0.00 in ()
Month to date snowfall 0.0  
Since 1 July snowfall 0.0  
Since 1 September snowfall 0.0  
Snow Depth -    
Sea Level Pressure  
Sea Level Pressure 29.96 in    
Wind  
Wind Speed 4 mph (WNW)    
Max Wind Speed 16 mph    
Max Gust Speed 24 mph    
Visibility 10 miles    
Events      
T = Trace of Precipitation, MM = Missing Value Source: NWS Daily Summary

Daily Weather History Graph

Daily Weather History Graph

Search for Another Location

Airport:

Trip Planner

Search our weather history database for the weather conditions in past years. The results will help you decide how hot, cold, wet, or windy it might be!

Date:

Astronomy

Oct. 19, 2012 Rise Set
Actual Time 7:32 AM CDT 6:46 PM CDT
Civil Twilight 7:07 AM CDT 7:11 PM CDT
Nautical Twilight 6:38 AM CDT 7:40 PM CDT
Astronomical Twilight 6:10 AM CDT 8:09 PM CDT
Moon 12:05 PM CDT (10/19) 10:37 PM CDT (10/19)
Length of Visible Light 12h 04m
Length of Day
11h 14m
Waxing Crescent, 24% of the Moon is Illuminated
Oct 19
Waxing Crescent
Oct 21
First Quarter
Oct 29
Full
Nov 6
Last Quarter
Nov 13
New

Hourly Weather History & Observations

Time (CDT) Temp. Dew Point Humidity Pressure Visibility Wind Dir Wind Speed Gust Speed Precip Events Conditions
12:53 AM 52.0 °F 37.0 °F 57% 29.97 in 10.0 mi Calm Calm - N/A   Clear
1:53 AM 50.0 °F 37.9 °F 63% 29.98 in 10.0 mi Calm Calm - N/A   Clear
2:53 AM 46.9 °F 37.9 °F 71% 29.96 in 10.0 mi Calm Calm - N/A   Clear
3:53 AM 50.0 °F 37.9 °F 63% 29.96 in 10.0 mi Calm Calm - N/A   Clear
4:53 AM 46.0 °F 37.9 °F 73% 29.96 in 10.0 mi Calm Calm - N/A   Clear
5:53 AM 48.0 °F 37.9 °F 68% 29.98 in 10.0 mi Calm Calm - N/A   Clear
6:53 AM 48.0 °F 39.0 °F 71% 29.99 in 10.0 mi WNW 4.6 mph - N/A   Clear
7:53 AM 46.9 °F 39.9 °F 77% 30.00 in 10.0 mi West 4.6 mph - N/A   Clear
8:53 AM 55.0 °F 43.0 °F 64% 30.02 in 10.0 mi West 6.9 mph - N/A   Clear
9:53 AM 63.0 °F 41.0 °F 45% 30.03 in 10.0 mi West 10.4 mph - N/A   Clear
10:53 AM 68.0 °F 28.9 °F 23% 30.02 in 10.0 mi NW 11.5 mph - N/A   Clear
11:53 AM 71.1 °F 26.1 °F 19% 30.01 in 10.0 mi WNW 13.8 mph - N/A   Clear
12:53 PM 73.0 °F 23.0 °F 15% 30.00 in 10.0 mi NW 16.1 mph 24.2 mph N/A   Clear
1:53 PM 73.9 °F 26.1 °F 17% 29.97 in 10.0 mi WNW 15.0 mph 24.2 mph N/A   Clear
2:53 PM 75.0 °F 26.1 °F 16% 29.95 in 10.0 mi NW 10.4 mph - N/A   Clear
3:53 PM 75.9 °F 26.1 °F 16% 29.93 in 10.0 mi West 12.7 mph - N/A   Clear
4:53 PM 75.9 °F 27.0 °F 16% 29.91 in 10.0 mi WNW 9.2 mph - N/A   Clear
5:53 PM 73.9 °F 28.9 °F 19% 29.90 in 10.0 mi WNW 3.5 mph - N/A   Clear
6:53 PM 66.9 °F 36.0 °F 32% 29.90 in 10.0 mi Calm Calm - N/A   Clear
7:53 PM 62.1 °F 37.0 °F 39% 29.91 in 10.0 mi Calm Calm - N/A   Clear
8:53 PM 55.9 °F 39.9 °F 55% 29.91 in 10.0 mi Calm Calm - N/A   Clear
9:53 PM 54.0 °F 39.9 °F 59% 29.91 in 10.0 mi Calm Calm - N/A   Clear
10:53 PM 52.0 °F 42.1 °F 69% 29.91 in 10.0 mi Calm Calm - N/A   Clear
11:53 PM 50.0 °F 42.1 °F 74% 29.92 in 10.0 mi Calm Calm - N/A   Clear